Location: Caserta
(41.0670°N, 14.3330°E)
Time: 12:14:42
(UTC+02:00)

STARLINK-1329 - Pass Details

Date: 04 October 2020
Orbit: 549 x 550 km, 53.0° (Epoch: 21 October)

Event Time Altitude Azimuth Distance (km) Brightness Sun altitude
Exits shadow 05:16:04 20° 334° (NNW) 1,294 5.4 -20.8°
Maximum altitude 05:16:30 21° 343° (NNW) 1,281 5.4 -20.7°
Drops below altitude 10° 05:19:40 10° 33° (NNE) 1,825 6.9 -20.1°
Sets 05:22:22 0° 50° (NE) 2,721 8.2 -19.6°
